Seatac, Washington, United States
Lat: 47.45N, Lon: 122.32W
Wx Zone: WAZ508
Local Info
Past Weather Observations for Today

NOTE: This archive is for the closest National Weather Service station to Seatac. Information may differ from the station used for current weather conditions.

Click here for Long-term Archive

Time Weather Temperature Dewpoint Humidity Pressure Winds Precip Visibility
17:53
Mostly Cloudy
64°F / 18°C 54°F / 12°C 68% 29.83 in
(1010 mb)
SW 19.6 mph
(SW 32 kph)
- 10SM
17:07
Mostly Cloudy
64°F / 18°C 55°F / 13°C 73% 29.8 in
(1009 mb)
SSE 17.3 mph
(SSE 28 kph)
- 10SM
16:53
Mostly Cloudy
64°F / 18°C 55°F / 13°C 73% 29.8 in
(1009 mb)
SW 20.7 mph
(SW 33 kph)
- 10SM
16:07
Mostly Cloudy
64°F / 18°C 55°F / 13°C 73% 29.83 in
(1010 mb)
SSE 19.6 mph
(SSE 32 kph)
- 10SM
15:53
Mostly Cloudy
64°F / 18°C 55°F / 13°C 73% 29.83 in
(1010 mb)
SSE 16.1 mph
(SSE 26 kph)
- 10SM
14:53
Mostly Cloudy
64°F / 18°C 54°F / 12°C 68% 29.86 in
(1011 mb)
SW 12.7 mph
(SW 20 kph)
0.00 in
(0.00 mm)
10SM
13:53
Mostly Cloudy
64°F / 18°C 54°F / 12°C 68% 29.86 in
(1011 mb)
SW 12.7 mph
(SW 20 kph)
0.00 in
(0.00 mm)
10SM
12:53
Mostly Cloudy
66°F / 19°C 54°F / 12°C 64% 29.89 in
(1012 mb)
SW 16.1 mph
(SW 26 kph)
- 10SM
12:11
Mostly Cloudy
66°F / 19°C 55°F / 13°C 68% 29.92 in
(1013 mb)
SSE 8.1 mph
(SSE 13 kph)
- 10SM
11:53
Mostly Cloudy
64°F / 18°C 55°F / 13°C 73% 29.92 in
(1013 mb)
S 11.5 mph
(S 19 kph)
- 10SM
11:29
Mostly Cloudy
64°F / 18°C 55°F / 13°C 73% 29.92 in
(1013 mb)
SW 9.2 mph
(SW 15 kph)
- 10SM
10:53
Mostly Cloudy
64°F / 18°C 55°F / 13°C 73% 29.92 in
(1013 mb)
SW 12.7 mph
(SW 20 kph)
- 10SM
09:53
Mostly Cloudy
63°F / 17°C 55°F / 13°C 77% 29.92 in
(1013 mb)
SW 9.2 mph
(SW 15 kph)
- 10SM
09:45
Mostly Cloudy
63°F / 17°C 55°F / 13°C 77% 29.92 in
(1013 mb)
SW 4.6 mph
(SW 7 kph)
- 10SM
08:53
Overcast
61°F / 16°C 55°F / 13°C 83% 29.95 in
(1014 mb)
SSW 4.6 mph
(SSW 7 kph)
- 10SM
07:53
Overcast
61°F / 16°C 55°F / 13°C 83% 29.95 in
(1014 mb)
SW 3.5 mph
(SW 6 kph)
- 10SM
06:53
Overcast
63°F / 17°C 54°F / 12°C 73% 29.95 in
(1014 mb)
NE 5.8 mph
(NE 9 kph)
- 10SM
05:53
Overcast
63°F / 17°C 54°F / 12°C 73% 29.98 in
(1015 mb)
NNE 5.8 mph
(NNE 9 kph)
- 10SM
05:48
Overcast
63°F / 17°C 54°F / 12°C 73% 29.98 in
(1015 mb)
N 5.8 mph
(N 9 kph)
- 10SM
04:53
Mostly Cloudy
63°F / 17°C 54°F / 12°C 73% 29.95 in
(1014 mb)
NE 6.9 mph
(NE 11 kph)
- 10SM
03:53
Mostly Cloudy
63°F / 17°C 54°F / 12°C 73% 29.98 in
(1015 mb)
NE 3.5 mph
(NE 6 kph)
- 10SM
02:53
Mostly Cloudy
63°F / 17°C 54°F / 12°C 73% 29.98 in
(1015 mb)
NE 6.9 mph
(NE 11 kph)
- 10SM
01:53
Mostly Cloudy
63°F / 17°C 54°F / 12°C 73% 29.98 in
(1015 mb)
NNE 8.1 mph
(NNE 13 kph)
- 10SM
00:53
Mostly Cloudy
63°F / 17°C 54°F / 12°C 73% 29.98 in
(1015 mb)
NE 8.1 mph
(NE 13 kph)
- 10SM
Time Weather Temperature Dewpoint Humidity Pressure Winds Precip Visibility


Weather for websites

WeatherForYou.com, LLC is not responsible for any damages or problems caused by this service. Current weather conditions are obtained from the closest station including government and personal stations which may have varying degrees of accuracy. Weather forecasts are derived from the NOAA NDFD. Like all things, this site belongs to Jesus Christ... He just trusts me to maintain it. If you have any questions or comments email webmaster@weatherforyou.com

Copyright © 2014, WeatherForYou.com LLC. All rights reserved.